[[{"header":{"parameterUnit":"m.s-1","parameterCategory":1,"la1":30.2991,"la2":30.254,"lo1":-89.0895,"lo2":-89.0444,"dy":0.0017,"dx":0.0017,"nx":28,"ny":28,"refTime":"2025-08-24T03:00:00:Z","depth":0,"parameterNumber":2,"parameterNumberName":"U-component_of_WINDS"},"data":[0,0,0,0,0,0,0,0,0,0,0,0,0,0,0,0,0,0,0,0,0,0,0,0,0,0,0,0,0,0,0,0,0,0,0,0,0,0,0,0,0,0,0,0,0,0,0,0,0,0,0,0,0,0,0,0,0,0,-1.4657,-1.4656,0,-1.4548,-1.4547,-1.4545,-1.4445,-1.4444,-1.4442,-1.4441,-1.4327,-1.4325,-1.4324,0,0,0,0,0,0,0,0,0,0,0,0,0,-1.478,-1.4778,-1.4658,-1.4656,-1.4655,-1.4548,-1.4547,-1.4545,-1.4445,-1.4444,-1.4442,-1.4441,-1.4328,-1.4326,-1.4323,0,0,0,0,0,0,0,0,0,0,0,0,0,-1.4704,-1.4777,-1.4658,-1.4592,-1.4585,-1.4548,-1.4547,-1.4545,-1.4445,-1.4444,-1.4442,-1.444,-1.4329,-1.4326,-1.4323,-1.4342,0,0,-1.4314,-1.4313,0,0,0,0,0,0,0,0,-1.4709,-1.47,-1.4603,-1.4597,-1.4589,-1.4508,-1.4548,-1.4477,-1.4446,-1.4498,-1.4441,-1.4439,-1.4389,-1.4381,-1.4364,-1.4337,-1.4332,-1.4314,-1.4312,-1.4311,-1.431,0,0,0,0,0,0,0,-1.4714,-1.4704,-1.4614,-1.4602,-1.4593,-1.4568,-1.4555,-1.4534,-1.4455,-1.4494,-1.4486,-1.4475,-1.4385,-1.4367,-1.4361,-1.433,-1.4314,-1.4312,-1.431,-1.4309,-1.4313,-1.4315,0,0,0,0,0,0,-1.4729,-1.4709,-1.4617,-1.4611,-1.4645,-1.4567,-1.4553,-1.4536,-1.4455,-1.4441,-1.4476,-1.447,-1.4373,-1.4364,-1.4357,-1.4373,-1.4311,-1.4309,-1.4307,-1.4312,-1.4314,-1.4316,0,0,0,0,0,0,-1.4732,-1.4722,-1.4622,-1.4658,-1.4643,-1.4567,-1.4549,-1.4535,-1.4517,-1.4442,-1.4427,-1.4473,-1.4371,-1.4361,-1.4347,-1.4368,-1.4307,-1.4305,-1.4309,-1.4312,-1.4315,-1.4407,0,0,0,0,0,0,-1.4736,-1.4724,-1.473,-1.4659,-1.4642,-1.4614,-1.455,-1.4534,-1.4513,-1.4504,-1.4435,-1.4422,-1.4369,-1.4352,-1.4344,-1.4363,-1.4302,-1.4307,-1.4311,-1.4314,-1.4402,-1.4413,-1.4422,0,0,0,0,0,-1.4741,-1.476,-1.4731,-1.472,-1.4648,-1.4616,-1.4606,-1.4545,-1.4515,-1.4521,-1.4473,-1.4424,-1.4368,-1.4351,-1.4341,-1.436,-1.4305,-1.431,-1.4314,-1.4398,-1.4411,-1.4422,0,0,0,0,0,0,-1.4834,-1.4749,-1.4716,-1.4712,-1.4672,-1.4599,-1.4604,-1.4561,-1.4528,-1.4521,-1.4446,-1.4432,-1.4426,-1.4392,-1.4375,-1.4375,-1.433,-1.4332,-1.4397,-1.4409,-1.4419,-1.4427,-1.43,0,0,0,0,0,-1.4855,-1.4836,-1.4763,-1.4767,-1.4748,-1.468,-1.4664,-1.4621,-1.4576,-1.4558,-1.4508,-1.4466,-1.4439,-1.4422,-1.4393,-1.4398,-1.4381,-1.4406,-1.4416,-1.4425,-1.4427,-1.4428,-1.4438,-1.4329,-1.4329,-1.4329,0,0,-1.4896,-1.4848,-1.484,-1.4784,-1.4748,-1.473,-1.4666,-1.4649,-1.4635,-1.4555,-1.4539,-1.4502,-1.445,-1.4446,-1.4441,-1.4417,-1.4454,-1.443,-1.4438,-1.4435,-1.4433,-1.4443,-1.4452,-1.4332,-1.4332,-1.4331,0,0,-1.4962,-1.4924,-1.4923,-1.4889,-1.4835,-1.479,-1.479,-1.4724,-1.4696,-1.468,-1.4619,-1.4602,-1.4556,-1.4522,-1.4498,-1.4555,-1.4509,-1.4548,-1.46,-1.4601,-1.461,-1.4617,-1.4636,-1.4645,-1.4551,-1.4551,-1.4551,0,-1.502,-1.4991,-1.4928,-1.4915,-1.4893,-1.4821,-1.482,-1.4789,-1.4729,-1.4715,-1.4689,-1.4632,-1.4591,-1.4578,-1.4593,-1.4576,-1.4574,-1.4554,-1.4614,-1.462,-1.4626,-1.4644,-1.4652,-1.4556,-1.4555,-1.4555,-1.4554,0,-1.5065,-1.5046,-1.5052,-1.4996,-1.4974,-1.4968,-1.4904,-1.489,-1.485,-1.4808,-1.4792,-1.4742,-1.4702,-1.4696,-1.4656,-1.4678,-1.4665,-1.4628,-1.4581,-1.4642,-1.4658,-1.4664,-1.4563,-1.4561,-1.456,-1.4559,0,0,-1.5183,-1.5095,-1.5098,-1.5073,-1.501,-1.4994,-1.4985,-1.4946,-1.4936,-1.4897,-1.4887,-1.4852,-1.4818,-1.4792,-1.4748,-1.4749,-1.4797,-1.4711,-1.4709,-1.4729,-1.4818,-1.4846,-1.4855,-1.4768,-1.4769,-1.477,-1.4822,0,-1.5238,-1.5217,-1.5161,-1.5157,-1.5139,-1.5072,-1.5064,-1.5025,-1.4987,-1.4966,-1.4923,-1.4899,-1.4855,-1.4839,-1.4838,-1.4792,-1.4814,-1.4788,-1.4757,-1.4757,-1.4771,-1.4863,-1.4891,-1.4943,-1.4828,-1.4829,-1.483,0,-1.5298,-1.5265,-1.526,-1.5199,-1.5189,-1.5183,-1.5144,-1.5125,-1.508,-1.5052,-1.5025,-1.4977,-1.4964,-1.4922,-1.4903,-1.4887,-1.4871,-1.4847,-1.4848,-1.4841,-1.4796,-1.4857,-1.4958,-1.4966,-1.4839,-1.4838,-1.4838,0,-1.5384,-1.5339,-1.533,-1.531,-1.5239,-1.5237,-1.5207,-1.516,-1.5141,-1.5108,-1.5095,-1.506,-1.5041,-1.5016,-1.496,-1.4935,-1.4947,-1.4901,-1.4923,-1.4924,-1.4926,-1.4927,-1.5025,-1.492,-1.492,-1.492,-1.4919,0,-1.545,-1.5449,-1.5368,-1.5362,-1.536,-1.5297,-1.5296,-1.526,-1.522,-1.5206,-1.5147,-1.5135,-1.5063,-1.5043,-1.5,-1.4991,-1.4983,-1.4959,-1.4948,-1.4964,-1.4967,-1.4951,-1.4946,-1.4922,-1.4921,-1.4921,-1.492,0,-1.5544,-1.549,-1.5476,-1.5411,-1.5395,-1.5396,-1.534,-1.5333,-1.5292,-1.5276,-1.5268,-1.5204,-1.5178,-1.5121,-1.5079,-1.505,-1.5051,-1.5031,-1.5067,-1.5059,-1.5084,-1.5082,-1.5174,-1.5183,-1.5074,-1.5075,-1.5076,0,-1.5589,-1.5587,-1.5523,-1.551,-1.5483,-1.5463,-1.5444,-1.5382,-1.5365,-1.5315,-1.5313,-1.5283,-1.5255,-1.5217,-1.5167,-1.5135,-1.5112,-1.5147,-1.5107,-1.5124,-1.5112,-1.5112,-1.5111,-1.5155,-1.5157,-1.5158,-1.5159,0,-1.5674,-1.5648,-1.5622,-1.5589,-1.5568,-1.5538,-1.5505,-1.5498,-1.5429,-1.5413,-1.5386,-1.5365,-1.5324,-1.5294,-1.5256,-1.5225,-1.5181,-1.5173,-1.5176,-1.5191,-1.5212,-1.52,-1.5089,-1.517,-1.5169,-1.5168,-1.5167,-1.5167,-1.5743,-1.5739,-1.5694,-1.5668,-1.5638,-1.5609,-1.5599,-1.5558,-1.5534,-1.5496,-1.5462,-1.5439,-1.5395,-1.5339,-1.5311,-1.5292,-1.527,-1.5275,-1.5276,-1.5277,-1.5284,-1.5217,-1.5285,-1.5285,-1.5284,-1.5284,-1.5284,0,-1.5824,-1.5793,-1.577,-1.5727,-1.5707,-1.5669,-1.5631,-1.5617,-1.5598,-1.5561,-1.5536,-1.5506,-1.5478,-1.5427,-1.5394,-1.5389,-1.5368,-1.5383,-1.5381,-1.5375,-1.5306,-1.5306,-1.54,-1.54,-1.54,-1.54,-1.54,-1.54,-1.5864,-1.5854,-1.5823,-1.5799,-1.5767,-1.5744,-1.5726,-1.5699,-1.567,-1.5639,-1.5616,-1.5583,-1.5541,-1.5506,-1.5478,-1.5464,-1.5454,-1.5475,-1.5455,-1.5391,-1.538,-1.5369,-1.5369,-1.5474,-1.5474,-1.5524,-1.5525,-1.5525]},{"header":{"parameterUnit":"m.s-1","parameterCategory":1,"la1":30.2991,"la2":30.254,"lo1":-89.0895,"lo2":-89.0444,"dy":0.0017,"dx":0.0017,"nx":28,"ny":28,"refTime":"2025-08-24T03:00:00:Z","depth":0,"parameterNumber":3,"parameterNumberName":"V-component_of_WINDS"},"data":[0,0,0,0,0,0,0,0,0,0,0,0,0,0,0,0,0,0,0,0,0,0,0,0,0,0,0,0,0,0,0,0,0,0,0,0,0,0,0,0,0,0,0,0,0,0,0,0,0,0,0,0,0,0,0,0,0,0,3.5575,3.5576,0,3.5611,3.5611,3.5611,3.5671,3.5672,3.5673,3.5674,3.5705,3.5705,3.5705,0,0,0,0,0,0,0,0,0,0,0,0,0,3.5556,3.5556,3.5575,3.5576,3.5576,3.561,3.5611,3.5611,3.5671,3.5672,3.5673,3.5675,3.5705,3.5705,3.5705,0,0,0,0,0,0,0,0,0,0,0,0,0,3.5575,3.5556,3.5575,3.561,3.5614,3.561,3.5611,3.5612,3.567,3.5672,3.5674,3.5675,3.5705,3.5705,3.5705,3.5669,0,0,3.5704,3.5704,0,0,0,0,0,0,0,0,3.5574,3.5576,3.5605,3.5608,3.5612,3.5638,3.5616,3.5631,3.567,3.5649,3.5674,3.5676,3.5681,3.5683,3.5686,3.567,3.5672,3.5704,3.5704,3.5703,3.5703,0,0,0,0,0,0,0,3.5573,3.5575,3.5589,3.5605,3.5609,3.5623,3.5627,3.5619,3.5655,3.5651,3.5655,3.5659,3.5683,3.5686,3.5687,3.5672,3.5704,3.5703,3.5703,3.5703,3.563,3.5628,0,0,0,0,0,0,3.5567,3.5573,3.5588,3.559,3.5597,3.5622,3.5627,3.5628,3.5655,3.5661,3.5657,3.5661,3.5686,3.5687,3.5688,3.5648,3.5703,3.5703,3.5703,3.5632,3.5629,3.5628,0,0,0,0,0,0,3.5566,3.5568,3.5587,3.5583,3.5586,3.562,3.5621,3.5628,3.563,3.566,3.5667,3.5653,3.5687,3.5689,3.5674,3.565,3.5703,3.5703,3.5634,3.5631,3.5628,3.5567,0,0,0,0,0,0,3.5565,3.5567,3.5554,3.5582,3.5586,3.5572,3.562,3.5627,3.563,3.5636,3.5658,3.5663,3.5688,3.5674,3.5673,3.565,3.5702,3.5636,3.5632,3.5629,3.5572,3.5563,3.5556,0,0,0,0,0,3.5564,3.5534,3.5553,3.5555,3.5572,3.5571,3.5573,3.5604,3.5628,3.5615,3.5635,3.5663,3.5653,3.5672,3.5672,3.5648,3.5637,3.5633,3.563,3.5575,3.5565,3.5556,0,0,0,0,0,0,3.5501,3.5539,3.556,3.5539,3.5551,3.5581,3.5565,3.5592,3.5596,3.5601,3.5638,3.5643,3.5623,3.5634,3.5655,3.5616,3.565,3.5646,3.5608,3.5599,3.5591,3.5588,3.5702,0,0,0,0,0,3.5484,3.5482,3.5515,3.5493,3.5498,3.5531,3.5532,3.5555,3.5569,3.5574,3.5592,3.5603,3.5603,3.5602,3.5603,3.5574,3.558,3.5558,3.555,3.5544,3.5539,3.5524,3.5515,3.5615,3.5615,3.5615,0,0,3.545,3.5471,3.5466,3.5481,3.5493,3.5489,3.5535,3.5528,3.5525,3.5572,3.556,3.5574,3.5589,3.5567,3.5558,3.5576,3.5513,3.5538,3.5533,3.5532,3.5519,3.551,3.5502,3.5612,3.5612,3.5613,0,0,3.5385,3.5401,3.5384,3.5397,3.5416,3.5438,3.5434,3.5461,3.5472,3.5461,3.5497,3.5493,3.5491,3.5501,3.5505,3.5446,3.5472,3.5446,3.5403,3.5388,3.538,3.5374,3.5352,3.5344,3.5441,3.5441,3.5441,0,3.5339,3.5336,3.5372,3.5364,3.5368,3.5414,3.5397,3.5407,3.5424,3.5426,3.5447,3.5447,3.546,3.5441,3.5427,3.5429,3.5425,3.5442,3.5379,3.5373,3.5367,3.5346,3.5338,3.5438,3.5438,3.5438,3.5439,0,3.5278,3.5275,3.5259,3.5278,3.5281,3.5268,3.5302,3.53,3.5324,3.5343,3.5331,3.5349,3.5355,3.5353,3.5374,3.5336,3.5347,3.5373,3.5407,3.5353,3.5334,3.5327,3.5433,3.5434,3.5435,3.5436,0,0,3.5171,3.5212,3.5206,3.5215,3.5241,3.5238,3.5227,3.5235,3.5233,3.5245,3.5236,3.5235,3.5259,3.5264,3.5288,3.5275,3.5227,3.5303,3.5303,3.5287,3.5185,3.5165,3.5155,3.5245,3.5244,3.5243,3.5184,0,3.5111,3.5096,3.513,3.5106,3.5103,3.5147,3.5138,3.5152,3.5171,3.517,3.519,3.5189,3.5222,3.5225,3.5215,3.5235,3.5206,3.5239,3.5235,3.5235,3.5229,3.5146,3.5124,3.5068,3.5177,3.5176,3.5175,0,3.5038,3.5048,3.5024,3.5052,3.5053,3.5044,3.5054,3.5054,3.507,3.5085,3.5092,3.512,3.511,3.5146,3.5132,3.5154,3.5155,3.5164,3.5163,3.5162,3.52,3.5142,3.5051,3.5042,3.5164,3.5165,3.5166,0,3.4961,3.4969,3.4956,3.4963,3.4995,3.4988,3.5001,3.502,3.5023,3.5032,3.5034,3.504,3.5043,3.5048,3.5077,3.51,3.506,3.5097,3.507,3.5069,3.5058,3.5058,3.4965,3.5061,3.5061,3.5061,3.5061,0,3.4889,3.4873,3.4922,3.4914,3.4897,3.4936,3.4918,3.4935,3.4952,3.4947,3.4985,3.498,3.5019,3.5018,3.5041,3.5026,3.5027,3.5038,3.5044,3.5034,3.5032,3.5033,3.5037,3.5059,3.5059,3.506,3.506,0,3.48,3.4833,3.4822,3.4855,3.4862,3.4848,3.4876,3.4869,3.4891,3.4885,3.4886,3.4919,3.492,3.495,3.4956,3.4972,3.4947,3.496,3.4941,3.4945,3.4916,3.4918,3.4819,3.4807,3.4911,3.491,3.491,0,3.4751,3.474,3.4773,3.4773,3.4785,3.4785,3.4789,3.4827,3.4829,3.4848,3.4839,3.4843,3.4848,3.4847,3.4871,3.4876,3.4889,3.4854,3.489,3.488,3.4887,3.4887,3.4886,3.4846,3.4844,3.4843,3.4843,0,3.4661,3.4678,3.4683,3.4694,3.4698,3.4708,3.472,3.4718,3.4759,3.4759,3.4762,3.4766,3.4773,3.4776,3.4786,3.4798,3.4826,3.4832,3.4825,3.4814,3.4803,3.4808,3.4919,3.4833,3.4834,3.4835,3.4835,3.4836,3.459,3.4582,3.4604,3.4609,3.4622,3.4633,3.4629,3.4652,3.4655,3.4665,3.4687,3.4685,3.4703,3.472,3.4729,3.4728,3.4745,3.4736,3.4734,3.4731,3.4725,3.4805,3.473,3.473,3.473,3.4731,3.4731,0,3.4501,3.4518,3.4522,3.4539,3.4542,3.4571,3.4587,3.4587,3.4586,3.4601,3.4606,3.4608,3.4612,3.4637,3.4644,3.4638,3.4651,3.4638,3.4638,3.464,3.4709,3.4714,3.4627,3.4627,3.4627,3.4627,3.4627,3.4627,3.4455,3.4443,3.4463,3.4459,3.4477,3.4477,3.4483,3.4493,3.4506,3.4507,3.4511,3.4529,3.4548,3.4556,3.456,3.4568,3.4568,3.455,3.4561,3.4625,3.4635,3.4645,3.4649,3.455,3.455,3.4492,3.4492,3.4491]}]]